Meteo Giornale » Osservazioni meteo Stati Uniti (USA) » Hereford
ore: 16:30 - Osservazioni Meteo Hereford
Lat. 34° 52' N Lon. 102° 20' W Alt. 1154 metri s.l.m.
35 °C
Sereno
Temp. 24 Ore
23 °C
36 °C
Sud
27.8 Km/h
Dew point 8 °C
Umidità 19 %
Visibilità 10 Km
Il sole sorge alle ore 07:22
Il sole tramonta alle ore 20:16
| Data e Ora | Cielo e Fenomeni | T °C | DP °C | Um. % | Pres. hPa | Vis. km | Vento km/h | |
|---|---|---|---|---|---|---|---|---|
| Oggi h: 16:30 | Sereno | 35 | 8 | 19 | 1018 | 10 | S 27.8 | |
| Oggi h: 16:10 | Sereno | 35 | 8 | 19 | 1018 | 10 | S 20.3 | |
| Oggi h: 15:50 | Sereno | 36 | 8 | 18 | 1018 | 10 | S 20.3 | |
| Oggi h: 15:30 | Sereno | 35 | 8 | 19 | 1019 | 10 | S/SO 13 | |
| Oggi h: 15:10 | Sereno | 35 | 8 | 19 | 1019 | 10 | S 18.5 | |
| Oggi h: 14:50 | Sereno | 35 | 9 | 20 | 1019 | 10 | S 22.2 | |
| Oggi h: 14:30 | Sereno | 35 | 9 | 20 | 1019 | 10 | SO 14.8 | |
| Oggi h: 14:10 | Sereno | 34 | 9 | 21 | 1019 | 10 | S 25.9 | |
| Oggi h: 13:50 | Sereno | 35 | 9 | 20 | 1020 | 10 | S/SO 18.5 | |
| Oggi h: 13:30 | Sereno | 34 | 9 | 21 | 1020 | 10 | S/SO 27.8 | |
| Oggi h: 13:10 | Sereno | 34 | 9 | 21 | 1020 | 10 | S 24 | |
| Oggi h: 12:50 | Sereno | 34 | 9 | 21 | 1020 | 10 | S 22.2 | |
| Oggi h: 12:30 | Nuvoloso | 34 | 9 | 21 | 1020 | 10 | S 25.9 | |
| Oggi h: 12:10 | Sereno | 33 | 10 | 24 | 1021 | 10 | SO 16.7 | |
| Oggi h: 11:50 | Sereno | 33 | 10 | 24 | 1021 | 10 | S 16.7 | |
| Oggi h: 11:30 | Sereno | 32 | 12 | 29 | 1021 | 10 | S/SO 22.2 | |
| Oggi h: 11:10 | Sereno | 32 | 14 | 33 | 1021 | 10 | SO 24 | |
| Oggi h: 10:50 | Sereno | 31 | 15 | 37 | 1021 | 10 | SO 25.9 | |
| Oggi h: 10:30 | Sereno | 30 | 15 | 40 | 1021 | 10 | SO 27.8 | |
| Oggi h: 10:10 | Sereno | 29 | 15 | 42 | 1021 | 10 | S/SO 25.9 | |
| Oggi h: 09:50 | Sereno | 28 | 15 | 45 | 1021 | 10 | S/SO 27.8 | |
| Oggi h: 09:30 | Sereno | 27 | 15 | 47 | 1021 | 10 | S/SO 25.9 | |
| Oggi h: 09:10 | Molto Nuvoloso | 27 | 15 | 47 | 1021 | 10 | S/SO 20.3 | |
| Oggi h: 08:50 | Molto Nuvoloso | 26 | 14 | 47 | 1021 | 10 | S/SO 20.3 | |
| Oggi h: 08:30 | Molto Nuvoloso | 25 | 14 | 50 | 1021 | 10 | S/SO 14.8 | |
| Oggi h: 08:10 | Coperto | 24 | 14 | 53 | 1021 | 10 | S/SO 13 | |
| Oggi h: 07:50 | Coperto | 24 | 14 | 53 | 1021 | 10 | S/SO 16.7 | |
| Oggi h: 07:30 | Molto Nuvoloso | 24 | 14 | 53 | 1021 | 10 | S/SO 16.7 | |
| Oggi h: 07:10 | Nuvoloso | 23 | 14 | 56 | 1020 | 10 | S/SO 14.8 | |
| Oggi h: 06:50 | Nuvoloso | 23 | 14 | 56 | 1020 | 10 | S/SO 16.7 | |
| Oggi h: 06:30 | Molto Nuvoloso | 23 | 13 | 53 | 1020 | 10 | S/SO 18.5 | |
| Oggi h: 06:10 | Molto Nuvoloso | 24 | 13 | 50 | 1020 | 10 | S 14.8 | |
| Oggi h: 05:50 | Molto Nuvoloso | 24 | 13 | 50 | 1020 | 10 | S/SO 16.7 | |
| Oggi h: 05:30 | Sereno | 24 | 13 | 50 | 1020 | 10 | S 16.7 | |
| Oggi h: 05:10 | Sereno | 24 | 13 | 50 | 1020 | 10 | S 16.7 | |
| Oggi h: 04:50 | Sereno | 24 | 13 | 50 | 1020 | 10 | S 16.7 | |
| Oggi h: 04:30 | Sereno | 24 | 12 | 47 | 1020 | 10 | S 20.3 | |
| Oggi h: 04:10 | Sereno | 24 | 12 | 47 | 1020 | 10 | S 16.7 | |
| Oggi h: 03:50 | Sereno | 24 | 12 | 47 | 1020 | 10 | S 14.8 | |
| Oggi h: 03:30 | Sereno | 24 | 12 | 47 | 1020 | 10 | S 14.8 | |
| Oggi h: 03:10 | Sereno | 24 | 12 | 47 | 1020 | 10 | S 13 | |
| Oggi h: 02:50 | Sereno | 25 | 12 | 44 | 1020 | 10 | S/SE 13 | |
| Oggi h: 02:30 | Sereno | 25 | 12 | 44 | 1020 | 10 | S/SE 14.8 | |
| Oggi h: 02:10 | Sereno | 25 | 12 | 44 | 1020 | 10 | S/SE 14.8 | |
| Oggi h: 01:50 | Sereno | 25 | 12 | 44 | 1020 | 10 | S/SE 14.8 | |
| Oggi h: 01:30 | Nuvoloso | 24 | 12 | 47 | 1020 | 10 | S/SE 14.8 | |
| Oggi h: 01:10 | Nuvoloso | 24 | 12 | 47 | 1020 | 10 | SE 11.1 | |
| Oggi h: 00:50 | Nuvoloso | 23 | 12 | 49 | 1020 | 10 | S 11.1 | |
| Oggi h: 00:30 | Nuvoloso | 24 | 12 | 47 | 1020 | 10 | S/SE 9.3 | |
| Oggi h: 00:10 | Sereno | 25 | 11 | 41 | 1020 | 10 | S/SE 9.3 | |
| Ieri h: 23:50 | Sereno | 26 | 11 | 39 | 1020 | 10 | S/SE 11.1 | |
| Ieri h: 23:30 | Sereno | 27 | 10 | 34 | 1020 | 10 | S 16.7 | |
| Ieri h: 23:10 | Sereno | 26 | 11 | 39 | 1020 | 10 | S 14.8 | |
| Ieri h: 22:50 | Sereno | 26 | 10 | 36 | 1020 | 10 | S 14.8 | |
| Ieri h: 22:30 | Sereno | 26 | 10 | 36 | 1019 | 10 | S 13 | |
| Ieri h: 22:10 | Sereno | 27 | 10 | 34 | 1019 | 10 | S 9.3 | |
| Ieri h: 21:50 | Sereno | 27 | 10 | 34 | 1019 | 10 | S 9.3 | |
| Ieri h: 21:30 | Sereno | 28 | 10 | 32 | 1018 | 10 | S 13 | |
| Ieri h: 21:10 | Sereno | 29 | 10 | 30 | 1018 | 10 | S 14.8 | |
| Ieri h: 20:50 | Sereno | 29 | 10 | 30 | 1017 | 10 | S 14.8 | |
| Ieri h: 20:30 | Sereno | 30 | 10 | 28 | 1017 | 10 | S 13 | |
| Ieri h: 20:10 | Sereno | 31 | 10 | 27 | 1017 | 10 | S 16.7 | |
| Ieri h: 19:50 | Sereno | 32 | 10 | 25 | 1017 | 10 | S 24 | |
| Ieri h: 19:30 | Sereno | 33 | 10 | 24 | 1017 | 10 | S 22.2 | |
| Ieri h: 19:10 | Sereno | 33 | 10 | 24 | 1017 | 10 | S 22.2 | |
| Ieri h: 18:50 | Sereno | 34 | 9 | 21 | 1017 | 10 | S 18.5 | |
| Ieri h: 18:30 | Sereno | 34 | 9 | 21 | 1017 | 10 | S 22.2 | |
| Ieri h: 18:10 | Sereno | 35 | 9 | 20 | 1017 | 10 | S 25.9 | |
| Ieri h: 17:50 | Sereno | 35 | 9 | 20 | 1017 | 10 | S 29.6 | |



